STARLINK-4426, 53484

Orbit data source: Space-Track

STARLINK-4426, 53484 is a payload satellite owned by SpaceX/Seattle (US) in SSO that was launched on Fri, 12 Aug 2022 UTC via an FALCON 9 launch vehicle from the Air Force Western Test Range (AFWTR). Payload-class satellites include a variety of spacecraft equipped with specific instruments for various scientific and technological missions. These include communications satellites like Starlink; space stations such as the ISS; scientific satellites like the Hubble; Earth observation satellites from companies like Planet Labs, Umbra, and HawkEye 360; GPS; miniature CubeSats for education and research; and military/defense satellites.

Loading next visibility...
Identifier
53484, 2022-099V
Orbit
SSO
Country
Flag of USUS
Related business
Manufacturer
SpaceX/Seattle
Mission
Operational Commercial Communications
Bus & Motor
STARLINK, Unknown motor
Mass
300 kg wet, ~275 kg dry
Launch date (UTC)
2022-08-12 (3 years ago)
Launch vehicle
FALCON 9
Launch site
Air Force Western Test Range (AFWTR)
Object type
Payload
Rocket body
Debris
Shape & HBR
Box + 1 Pan, 10.1 m
Radar Cross Section
13.562 m², Large (>1 m²)

Expand to show TLE details & history
Last TLE update: 14 hours ago

TLE from 14 hours ago
0 STARLINK-4426
1 53484U 22099V   25346.88037393 -.00009639  00000-0 -66385-3 0  9997
2 53484  97.6025 105.6235 0001189 114.1320 246.0031 15.05699831182989
Epoch: 2025-12-12T21:07Z
TLE epoch observation values (Epoch: 2025-12-12T21:07:44.307Z)
Latitude
-0.00005°
Longitude
66.87325°
Altitude
552.759 km
Speed
7.585 km/s
True Right ascension
07h 02m 29s
True Declination
0° 00' 00"
Sunlit
Object was in full shadow at epoch
Visualization orbit readout
Latitude
Unknown
Longitude
Unknown
Altitude
Unknown
Speed
Unknown
Apparent Right ascension
Unknown
Apparent Declination
Unknown
Sunlit
N/A
Visualization observer readout
Local Sidereal Time
09:17:37
Azimuth
Unknown
Elevation
Unknown
Doppler factor
Unknown
Orbital elements
Apogee altitude
547.175 km
Perigee altitude
545.528 km
Semi-major axis
6,924.489 km
Eccentricity
0.00012
Inclination
97.6025°
RAAN
105.6235°
Arg. of periapsis
114.132°
True anomaly
245.99065°
Mean anomaly
246.0031°
Eccentric anomaly
245.99688°
Mean motion
3.7667 °/min
Orbital period
95.57 mins
BSTAR
-0.00066385
Loading maneuver chart data...
Computing Atmospheric mass density...
Loading historical data...
Loading historical data...
Loading historical data...
Loading historical data...
Loading historical data...
Loading historical data...
Loading historical data...

Documentation

Showing up to 5 results
|